SCP
1 1 0 0 0 0 0 0 0 0 0 0 0 0 0 0 0 0 0 0 0 0 1 1 1 1 0 0 0 0 0 0 0 0 0 0 0 0 0 0 1 1 1 1 1 1 1 1 1
1 1 0 0 0 0 0 0 0 0 0 0 0 0 0 0 0 0 0 0 0 1 1 1 1 1 0 0 0 0 0 0 0 0 0 0 0 0 0 0 0 1 1 1 1 1 1 1 1
1 0 0 0 0 0 0 0 0 0 0 0 0 0 0 0 0 0 0 1 1 1 1 1 1 1 0 0 0 0 0 0 0 0 0 0 1 1 0 0 0 0 0 1 1 1 1 1 1
0 0 0 0 0 0 0 0 0 0 0 0 0 0 0 0 0 0 1 1 1 1 1 1 1 1 0 0 0 0 0 0 0 0 0 0 0 1 1 0 0 0 0 0 0 0 1 1 0
0 0 0 0 0 0 0 0 0 0 0 0 0 0 0 0 0 0 0 1 1 1 1 1 1 0 0 0 0 0 0 0 0 0 0 0 0 0 0 0 0 1 1 0 0 0 1 0 0
0 0 0 0 0 0 0 0 0 0 0 0 0 0 0 0 0 0 0 0 0 1 1 1 1 1 1 0 0 0 0 0 0 0 0 0 0 0 0 0 0 0 0 0 0 1 1 1 1
0 0 0 0 0 0 0 0 0 0 0 0 0 0 0 0 0 0 0 0 0 0 0 1 1 1 1 0 0 0 0 0 0 0 0 0 0 0 0 0 0 0 0 0 0 1 1 1 1
0 0 0 0 0 0 0 0 0 0 0 0 0 0 0 0 1 1 0 0 0 0 0 0 0 1 0 0 0 0 0 0 0 0 0 0 0 0 0 0 1 1 1 1 0 1 1 1 1
0 0 0 0 0 0 0 0 0 0 0 0 0 0 0 1 1 1 1 0 0 0 0 0 0 0 0 0 0 0 0 0 0 0 0 0 0 0 0 0 1 1 1 1 1 1 1 1 1
0 0 0 0 0 0 0 0 0 0 0 0 1 1 1 1 1 1 1 0 0 0 0 0 0 0 0 0 0 0 0 0 0 0 0 0 0 0 0 0 0 1 0 0 0 1 0 0 0
0 0 0 0 0 0 0 0 0 0 0 0 1 1 1 1 1 1 1 0 0 0 0 0 0 0 0 0 0 0 0 0 0 0 0 0 0 0 0 0 0 0 0 0 0 0 0 0 0
0 0 0 0 0 0 0 0 0 0 0 1 1 1 1 0 1 0 0 0 1 1 0 0 0 0 0 0 0 0 0 0 0 0 0 0 0 0 0 0 0 0 0 0 0 0 0 0 0
0 0 0 1 1 0 0 0 0 0 0 1 1 1 1 0 0 0 0 0 1 1 1 1 1 1 0 0 0 0 0 0 0 0 0 0 0 0 0 0 0 0 0 0 0 0 0 0 0
0 0 0 1 1 0 0 0 0 0 0 1 1 1 1 1 0 0 0 1 0 0 1 1 1 1 1 1 1 1 0 0 0 0 0 0 0 0 0 0 0 0 0 0 0 0 0 0 0
0 0 0 0 0 0 0 0 0 0 0 1 1 1 1 1 0 0 1 1 1 1 1 1 1 1 1 1 1 1 1 1 0 0 0 0 0 0 0 0 0 0 0 0 0 0 0 0 0
0 0 0 0 0 0 0 0 0 0 0 0 1 1 1 1 0 0 0 1 1 1 1 1 1 1 1 1 1 1 1 1 1 1 0 0 0 0 0 0 0 0 0 0 0 0 0 0 0
0 0 0 0 0 0 0 0 0 0 0 0 0 1 1 0 0 0 0 0 0 0 1 1 1 1 1 1 1 1 1 1 1 1 1 1 1 1 0 0 0 0 0 0 0 0 0 0 0
0 0 0 0 0 0 0 0 0 0 0 0 0 0 0 0 0 0 0 0 0 0 0 0 1 1 1 1 1 1 1 1 1 1 1 1 1 1 1 1 1 1 1 1 1 0 0 0 0
0 0 0 0 0 0 0 0 0 0 0 0 0 0 0 0 0 0 0 0 0 0 0 0 0 0 0 0 0 0 1 1 1 1 1 1 1 1 1 1 1 1 1 1 1 1 0 0 0
0 0 0 0 0 0 0 0 0 0 0 0 0 0 0 0 0 0 0 0 0 0 0 0 0 0 0 0 0 1 1 1 1 1 1 1 1 1 1 1 1 1 1 1 1 1 1 0 0
0 0 0 0 0 0 0 0 0 0 1 0 0 0 0 0 0 0 0 0 0 0 0 0 0 0 0 0 0 1 1 1 1 0 0 0 1 1 1 1 1 1 2 2 1 1 1 1 0
0 0 0 0 0 0 0 0 0 0 1 1 0 0 0 0 0 0 0 0 0 0 0 0 0 0 0 0 0 1 1 1 1 0 0 0 0 1 1 1 1 1 2 1 1 1 1 1 0
0 0 0 0 0 0 0 0 0 0 0 0 0 0 0 0 0 0 0 0 0 0 0 0 0 0 0 0 0 0 0 0 0 0 0 0 0 0 1 1 1 1 2 1 1 1 1 1 1
0 0 0 0 0 0 0 0 0 0 0 0 0 0 0 0 0 0 0 0 0 0 0 0 1 0 0 0 0 0 0 0 0 0 0 0 0 0 0 1 1 1 1 1 1 1 1 1 1
0 0 1 1 0 0 0 0 0 0 0 0 0 0 0 0 0 0 0 0 0 0 0 1 1 1 0 0 0 0 0 0 0 0 0 0 0 0 0 0 0 1 1 1 1 0 0 1 1
0 1 1 1 1 0 0 0 0 0 0 0 0 0 0 0 0 0 0 0 0 0 0 1 1 1 1 0 0 0 0 0 0 0 0 0 0 0 0 0 0 0 0 1 1 1 1 1 1
0 1 1 1 1 0 0 0 0 0 0 0 0 0 0 0 0 0 0 0 0 0 0 1 1 1 1 0 0 0 0 0 0 0 0 0 0 0 0 0 0 0 0 0 1 1 1 1 1
0 1 1 1 1 1 0 0 0 0 0 0 0 0 0 0 0 0 0 0 0 0 0 0 1 1 1 0 0 0 0 0 0 0 0 0 0 0 0 0 0 0 0 0 0 1 1 1 1
0 1 1 1 1 0 0 0 0 0 0 0 0 0 0 0 0 0 0 0 0 0 0 0 0 0 0 0 0 0 0 0 0 0 0 0 0 0 0 0 0 0 0 0 0 0 0 1 1
0 1 1 1 0 0 0 0 0 0 0 0 0 0 0 0 0 0 0 0 0 0 0 0 0 0 0 0 1 1 0 0 0 0 0 0 0 0 0 0 0 0 0 0 0 0 0 0 1
Wind_Speed
3 1 2 4 6 6 3 1 1 2 4 4 7 9 8 5 4 3 2 4 7 5 4 5 7 8 9 9 9 9 9 9 10 10 9 10 10 10 9 10 10 10 10 11 10 10 10 10 10
1 0 4 5 6 4 2 0 3 3 6 6 7 7 7 5 3 4 2 5 8 6 4 5 8 9 9 9 10 9 9 9 9 9 9 10 10 9 9 9 10 10 10 10 10 10 10 10 10
1 1 4 5 4 4 3 2 4 4 5 5 5 5 5 3 3 3 4 8 8 6 4 5 9 9 9 9 9 9 9 9 9 9 9 9 9 9 9 9 9 10 10 9 9 9 10 9 9
3 5 5 6 5 2 4 3 4 5 5 5 5 6 4 2 2 4 7 9 8 6 4 5 9 9 9 9 8 8 9 9 9 8 8 9 9 9 9 9 9 9 9 8 9 9 9 9 9
4 5 6 4 3 1 2 3 5 6 4 5 7 6 3 2 4 7 8 9 8 6 4 5 9 9 9 8 8 8 8 8 8 8 8 8 8 8 8 8 8 8 8 8 8 8 8 9 9
5 5 5 3 2 2 2 4 6 7 6 6 6 5 2 1 4 6 8 8 7 7 5 5 8 9 8 8 7 7 7 7 7 8 8 8 8 8 8 8 8 8 7 7 8 8 8 8 8
5 5 3 3 2 2 2 3 6 6 5 3 5 5 2 1 3 6 7 6 6 6 5 3 3 4 6 7 6 6 6 6 6 7 7 7 7 8 7 7 8 8 7 7 7 7 7 7 8
5 5 3 2 3 1 2 3 4 5 4 4 4 6 3 4 4 6 6 5 5 4 4 3 2 2 2 3 5 5 5 5 5 6 7 7 7 7 7 6 7 7 7 7 6 7 7 7 8
5 6 2 2 4 2 3 4 2 4 6 4 3 4 5 6 6 6 5 4 3 3 2 3 2 2 2 2 3 3 4 4 4 4 5 4 2 2 3 4 6 6 6 6 6 6 7 7 7
5 4 4 3 5 4 3 4 3 4 6 4 5 4 6 7 6 6 5 4 4 3 3 2 2 2 2 2 2 1 1 1 1 1 2 1 1 1 2 3 5 5 5 5 6 7 6 5 3
3 4 3 4 5 5 4 3 3 7 3 4 7 7 6 5 5 5 5 5 5 4 4 3 3 2 2 1 2 1 0 1 1 1 1 2 1 1 1 1 2 3 3 3 4 4 3 3 2
2 1 3 4 4 4 3 3 3 4 5 6 9 9 7 6 5 5 5 4 3 3 4 3 4 2 2 1 1 1 1 0 1 1 2 2 1 1 1 1 1 1 1 1 2 2 2 3 3
3 2 3 4 6 5 5 4 4 2 4 6 7 7 6 6 4 4 4 4 4 3 3 4 3 3 2 2 1 2 1 1 1 1 2 3 2 2 1 1 1 1 1 1 1 2 2 2 3
3 4 3 3 3 3 6 3 3 3 5 7 8 7 5 5 4 3 3 3 3 3 3 3 4 4 3 3 2 2 1 1 1 1 2 3 2 2 2 1 1 1 1 1 1 2 2 2 2
4 4 2 0 2 2 5 2 2 5 7 7 6 6 5 3 4 4 4 4 4 3 2 3 4 4 4 3 3 2 1 2 2 1 1 2 3 3 2 2 1 1 1 2 2 2 2 2 3
3 3 0 4 3 3 5 3 3 3 7 6 5 4 4 3 3 3 3 3 3 3 2 2 3 3 3 3 3 2 1 2 2 1 1 2 3 3 3 2 1 1 2 2 2 2 2 2 2
2 1 3 4 3 3 4 4 4 4 6 5 4 4 3 2 2 2 2 2 2 3 3 3 3 3 3 3 2 2 2 2 1 1 1 2 2 3 3 2 1 1 2 2 2 2 2 2 2
3 2 3 4 3 4 4 3 3 4 6 6 5 4 3 3 2 2 3 3 3 3 3 4 4 4 3 3 2 2 2 2 2 2 2 2 2 3 3 2 2 2 2 2 2 2 2 2 1
3 2 3 4 4 4 5 4 4 4 4 5 4 4 4 3 2 2 3 4 4 4 4 4 5 3 3 2 2 2 1 1 2 2 2 2 3 3 3 2 2 2 2 2 2 2 2 2 1
2 2 2 2 2 4 3 2 3 4 6 8 7 6 4 3 3 3 3 4 4 4 4 4 4 4 3 1 1 2 2 1 1 2 2 3 3 2 3 3 2 2 2 2 2 2 1 1 1
2 3 3 2 1 2 3 2 1 1 2 4 5 5 5 6 6 4 3 3 4 4 3 4 4 3 3 3 2 3 3 3 3 2 2 2 2 2 2 3 3 2 2 2 1 2 2 1 0
3 4 3 2 2 2 2 2 4 3 2 3 5 4 5 5 5 4 4 3 3 3 3 3 3 3 3 3 4 4 3 2 1 0 1 2 2 3 2 2 3 2 2 2 1 2 2 2 1
4 2 1 2 2 0 1 2 6 2 3 6 6 6 6 6 7 6 5 4 3 3 3 3 3 3 3 3 4 4 2 1 1 1 2 2 2 2 2 2 2 2 2 2 2 2 2 2 2
1 4 4 5 4 1 4 4 5 5 7 6 6 6 6 6 6 5 4 4 3 3 3 3 4 3 3 3 4 4 3 3 2 2 1 1 1 1 2 2 2 1 1 1 1 2 2 1 2
4 6 4 4 3 5 2 2 6 6 5 7 9 7 6 6 6 6 5 4 3 3 3 3 4 3 3 3 3 3 3 3 2 1 1 1 1 1 1 1 1 1 1 1 1 1 2 2 2
2 7 6 3 3 4 2 2 4 3 2 4 6 7 6 5 5 6 6 5 4 3 3 3 3 3 2 2 2 2 2 2 1 1 1 1 0 1 0 1 1 0 1 1 1 1 1 1 2
2 2 5 5 1 1 2 2 3 3 4 5 6 6 6 6 5 5 5 4 4 3 3 3 3 2 2 1 1 1 1 1 1 1 0 0 1 0 0 0 1 0 0 1 1 1 1 1 1
3 4 5 3 2 2 3 2 4 4 3 4 5 6 6 6 5 5 4 4 3 3 2 3 3 3 2 1 1 1 0 1 1 1 1 1 1 0 0 0 0 0 0 0 1 1 1 1 1
0 1 3 3 4 4 2 5 5 8 8 8 8 7 7 7 7 6 4 4 3 3 2 2 2 2 1 1 1 1 0 0 0 0 1 1 1 0 0 1 0 0 0 0 1 1 1 1 1
3 4 5 4 3 3 3 7 5 4 6 7 7 6 6 7 6 6 5 4 3 2 2 2 2 2 1 1 1 0 1 1 0 0 1 0 0 0 0 0 1 0 0 1 1 2 1 2 2
Wind_Direction
303 349 91 62 53 54 60 22 97 66 59 63 76 84 84 68 89 125 231 136 129 127 116 105 99 97 93 89 88 86 83 82 81 78 78 78 79 78 76 79 83 82 82 82 82 83 81 81 82
331 55 68 59 76 74 35 352 89 96 134 120 81 79 78 66 79 107 103 133 130 125 117 106 100 96 94 90 88 86 83 82 83 81 79 79 80 79 77 80 83 83 83 84 82 82 80 79 79
313 73 78 66 84 128 144 166 115 87 96 94 85 64 78 98 97 132 150 136 127 121 116 112 105 101 96 92 89 87 85 84 85 82 82 80 80 80 79 81 83 82 81 82 80 80 80 80 81
58 45 54 71 83 118 146 166 128 99 62 59 93 71 65 87 136 148 136 134 127 124 126 123 113 107 103 97 93 90 88 86 85 83 83 82 83 83 83 82 84 84 82 80 80 80 79 80 81
64 69 60 65 80 85 110 103 102 93 79 74 88 90 65 12 101 123 130 135 135 137 138 132 121 115 109 102 97 93 90 87 87 87 86 86 88 88 85 82 82 84 84 82 82 80 80 78 77
57 66 77 82 82 72 73 92 89 87 102 101 96 106 107 107 115 130 136 135 140 144 141 136 130 124 118 111 106 100 94 92 92 92 90 88 89 90 87 85 83 83 85 85 83 79 78 77 77
99 92 114 130 105 86 105 98 98 106 105 116 125 108 122 134 147 138 133 128 132 139 134 134 137 132 126 120 115 109 103 100 100 99 98 94 91 90 87 87 86 85 85 86 85 80 75 73 76
123 99 87 109 117 93 105 92 105 105 102 115 112 122 162 198 155 123 118 115 119 123 129 132 139 137 138 132 124 119 110 105 102 106 104 100 96 91 88 86 87 86 84 85 84 77 73 70 73
90 80 114 177 155 152 110 99 80 80 95 78 86 133 162 149 127 108 102 93 111 116 123 137 145 158 158 156 145 128 120 108 105 106 108 96 76 74 75 81 84 82 79 78 78 73 66 65 65
88 119 195 183 158 147 118 109 117 84 77 76 79 89 116 126 130 130 131 133 141 151 159 146 153 166 162 162 136 134 131 119 111 104 104 102 103 91 87 62 73 74 71 65 70 63 58 58 48
118 159 171 146 147 135 117 94 92 117 107 153 147 144 139 132 139 146 154 156 163 164 156 160 161 158 155 153 141 140 116 118 129 130 132 117 96 78 74 55 40 42 55 47 50 49 41 47 47
109 159 151 143 134 122 123 113 88 116 174 173 154 149 148 147 158 165 167 168 160 152 160 169 166 160 165 152 148 141 145 143 128 146 138 123 110 100 98 82 67 50 47 52 49 58 48 53 52
113 132 116 124 116 117 107 111 117 135 149 142 139 134 143 148 157 164 163 162 156 159 167 170 165 163 159 146 151 133 157 163 151 125 133 129 123 127 123 104 85 74 70 74 71 62 60 65 67
151 125 119 128 121 131 126 125 108 181 145 132 134 141 151 154 154 141 141 142 161 170 178 171 168 168 151 149 154 155 173 155 127 121 131 130 125 124 118 105 85 72 83 88 91 84 75 69 76
111 95 47 214 157 157 114 76 195 188 144 139 145 147 143 144 134 140 160 158 160 165 162 168 166 156 148 149 157 149 154 124 117 120 121 133 130 125 118 109 96 85 93 89 85 75 71 73 71
55 83 179 258 185 184 123 198 241 176 139 144 150 143 131 121 122 129 138 149 149 138 129 141 140 140 145 142 145 142 133 120 123 128 115 124 130 127 117 108 106 98 91 91 95 84 76 64 63
31 151 222 259 209 169 144 196 224 180 149 150 151 144 135 111 71 75 96 106 128 137 127 97 96 125 132 130 124 119 113 107 112 109 105 118 121 124 119 115 114 99 86 85 102 87 94 89 70
225 206 230 227 216 152 153 196 208 185 159 161 154 149 146 143 164 123 94 88 87 93 94 90 85 90 102 99 82 75 72 71 74 83 92 107 110 110 109 112 103 97 91 77 85 93 77 90 95
198 196 231 236 205 151 168 187 209 190 153 157 158 162 163 167 161 104 93 87 76 75 81 77 77 68 85 91 94 103 98 79 66 71 79 87 96 102 105 106 96 93 103 111 111 105 86 64 71
183 215 267 284 219 161 174 211 216 185 177 175 174 174 171 137 103 95 84 76 77 81 89 81 81 75 74 88 134 137 128 100 80 54 61 71 89 96 106 109 113 105 99 85 87 102 94 60 77
207 193 208 225 4 74 121 331 277 227 158 163 174 172 165 154 149 139 111 88 86 83 99 102 89 79 74 71 72 70 62 51 40 33 37 38 84 92 95 110 117 118 117 122 118 119 128 153 299
225 221 197 164 110 254 170 241 267 215 194 189 190 172 167 157 144 139 124 106 106 104 98 98 94 80 75 90 95 98 109 116 165 159 64 45 62 76 89 100 112 123 123 129 137 116 125 138 150
210 212 190 172 146 321 290 170 275 198 205 218 203 180 167 157 149 145 142 136 118 102 98 97 88 77 74 87 106 104 87 96 85 79 72 56 41 53 70 82 96 110 121 133 121 111 113 122 137
157 54 33 51 76 291 240 172 262 222 209 202 190 173 164 156 149 141 129 113 94 81 82 85 83 70 66 81 90 101 101 87 85 73 78 60 35 27 42 76 85 106 124 137 141 141 139 139 130
68 76 30 5 15 253 254 168 247 251 211 184 174 169 162 150 143 138 129 121 111 100 89 85 86 71 60 73 83 96 101 99 102 111 125 101 48 9 342 64 89 110 152 154 140 137 155 150 140
172 137 153 196 224 278 337 225 272 298 137 136 144 146 140 141 146 151 153 149 142 130 119 107 103 88 71 68 69 80 95 100 95 88 110 141 196 245 262 89 104 105 116 129 132 138 185 148 151
148 169 172 148 213 270 289 300 336 29 74 99 121 133 147 154 154 157 154 153 153 143 137 137 129 113 107 102 89 74 84 94 90 79 90 220 264 250 323 99 90 32 52 86 125 142 199 161 164
160 151 92 111 158 258 286 245 224 216 185 158 157 162 164 160 156 156 156 158 161 155 139 126 128 137 144 112 98 81 96 122 111 76 14 330 306 325 44 82 110 70 17 37 114 142 175 145 184
68 98 116 125 152 159 238 265 232 199 191 182 185 181 172 170 170 166 162 163 158 144 134 129 123 118 120 119 105 70 28 130 133 135 284 312 312 326 235 204 184 161 159 117 127 189 190 177 200
175 182 148 153 222 177 180 263 283 201 189 177 182 185 180 170 167 165 159 152 150 148 145 142 134 132 161 166 141 116 36 34 27 304 292 319 312 295 240 190 148 188 194 196 184 207 211 203 210